Location: Murdochville
(48.9591°N, 65.4950°W)
Time: 21:52:50
(UTC-04:00)

Envisat - Pass Details

Date: 27 April 2026
Orbit: 761 x 762 km, 98.4° (Epoch: 15 May)

Event Time Altitude Azimuth Distance (km) Brightness Sun altitude
Rises 03:00:20 0° 15° (NNE) 3,235 7.4 -17.8°
Reaches altitude 10° 03:02:39 10° 18° (NNE) 2,305 6.5 -17.6°
Maximum altitude 03:07:44 74° 103° (ESE) 795 3.1 -17.0°
Enters shadow 03:11:12 21° 186° (S) 1,679 4.3 -16.6°
